Dewpoint
68 72 74 73 73 73 73 74 74 74 74 73 74 74 75 75 73 73 73 73 73 74 74 74 74 74 75 75 74 74 74 73 73 74 74 74 74 75 74 74 73 70 75
66 71 74 73 73 73 73 74 74 74 74 74 74 74 74 75 74 74 74 74 73 73 73 73 73 74 75 74 73 73 73 73 74 73 73 74 74 74 74 74 72 72 74
66 69 72 74 73 73 73 74 73 73 74 74 74 74 75 75 75 74 74 74 74 74 74 73 73 73 73 73 73 73 73 74 74 74 73 70 71 73 73 74 74 74 74
69 70 71 74 73 73 73 73 74 73 73 73 74 75 75 74 74 75 74 74 74 74 74 74 74 74 74 74 74 74 73 73 73 73 70 70 69 73 73 73 73 74 74
70 71 72 73 73 73 72 72 73 72 72 72 74 74 75 75 75 74 74 74 74 74 74 73 73 73 73 73 72 73 72 72 72 71 70 70 69 71 71 72 73 73 73
69 69 73 73 73 72 71 72 73 72 72 74 74 74 75 75 74 73 73 73 73 73 73 72 72 72 71 71 71 71 72 72 72 71 73 71 70 71 71 71 71 71 72
67 70 72 73 73 73 70 71 70 73 73 74 74 74 74 74 73 73 73 74 73 73 73 72 72 72 72 73 73 73 73 73 69 70 71 71 71 73 72 72 73 72 72
66 71 72 73 73 73 69 71 73 73 74 74 74 75 74 74 74 73 73 73 73 73 73 73 73 73 73 74 74 74 75 74 68 68 71 71 72 73 72 72 72 72 72
66 68 72 73 72 72 73 73 73 73 73 73 74 75 74 74 73 74 74 74 73 73 73 73 73 73 73 73 75 75 75 75 72 71 68 67 68 69 71 70 70 71 71
66 67 71 73 74 73 72 74 73 74 74 74 74 74 75 74 73 74 73 73 74 73 74 74 75 75 75 75 75 75 74 73 71 72 71 69 70 71 72 73 72 72 72
65 66 68 71 72 72 72 73 74 75 74 74 74 74 72 69 69 69 73 74 74 74 73 74 75 75 75 75 75 74 73 69 70 71 70 73 73 72 73 73 73 73 74
66 67 66 68 68 68 68 71 72 72 71 72 72 73 70 71 73 71 72 72 73 72 73 74 73 75 73 70 71 73 68 69 68 71 67 71 72 74 73 73 74 74 74
67 67 68 68 69 68 70 68 70 71 70 70 73 72 72 71 72 70 70 69 71 72 71 72 71 69 71 71 72 71 71 70 68 67 68 70 71 74 74 74 75 74 74
65 66 66 68 70 69 69 67 69 70 70 69 71 73 73 71 73 72 69 71 72 72 73 71 70 72 71 72 71 71 69 69 66 65 68 69 71 74 74 72 72 72 73
63 65 66 68 70 70 70 70 71 71 70 71 71 71 73 71 71 70 71 71 72 73 71 71 71 71 71 71 70 69 69 67 68 67 67 69 72 74 73 71 71 73 73
63 64 64 67 69 70 69 71 72 72 69 71 70 69 72 72 72 70 72 71 70 72 73 72 73 72 72 71 71 70 68 69 70 69 68 70 72 74 73 71 72 73 73
62 64 65 64 67 69 69 70 71 71 71 71 70 72 71 70 72 71 70 70 70 72 73 73 73 72 71 70 70 69 67 70 69 69 71 70 71 74 72 71 73 73 70
64 66 65 61 64 67 69 69 69 71 71 70 71 71 71 70 70 71 69 70 69 71 73 72 72 71 71 69 68 69 68 69 70 71 69 70 71 72 71 72 73 73 70
64 65 64 64 64 67 69 70 71 72 70 70 71 71 71 71 70 69 68 69 71 71 72 72 72 70 69 67 67 68 69 69 69 69 70 70 71 71 72 73 73 73 72
62 64 64 64 66 68 68 71 71 70 70 72 71 71 72 71 68 70 69 69 70 68 71 72 72 71 69 68 65 66 65 69 69 70 70 69 71 72 72 74 73 71 73
62 63 64 65 67 69 68 69 69 68 71 72 71 73 73 72 70 71 68 68 69 68 72 73 71 70 69 69 66 66 68 68 67 69 72 71 71 71 73 74 73 72 69
63 63 65 65 66 70 69 70 70 71 70 71 71 71 72 71 72 71 71 69 69 71 73 73 71 68 68 69 68 67 64 65 67 67 70 69 71 71 68 72 73 73 72
63 64 64 65 67 69 71 69 71 71 72 71 69 70 70 72 71 70 70 69 69 71 73 74 74 72 70 70 70 68 65 66 66 66 66 67 67 70 66 68 71 74 73
63 64 64 66 68 68 71 70 71 73 68 72 69 69 70 73 73 71 69 69 70 72 74 74 74 74 73 71 70 67 69 69 64 60 64 66 68 69 67 68 69 71 73
63 63 64 67 68 69 71 72 69 70 68 69 70 73 73 74 74 71 71 71 73 72 74 75 75 75 73 72 71 69 69 67 68 63 62 64 67 69 66 69 68 68 71
63 64 65 68 69 71 71 71 72 72 70 68 70 69 70 70 72 73 72 73 74 74 75 75 75 74 75 74 73 72 69 68 71 67 69 67 66 67 69 69 70 66 69
Lifted_Index
-2 -3 -4 -4 -3 -3 -4 -4 -4 -4 -4 -4 -4 -4 -4 -4 -4 -3 -3 -3 -3 -3 -4 -4 -4 -4 -5 -5 -5 -5 -5 -5 -5 -6 -6 -7 -7 -7 -7 -7 -7 -7 -8
-2 -3 -4 -4 -4 -3 -4 -4 -4 -4 -4 -4 -4 -4 -4 -4 -4 -3 -3 -3 -3 -3 -3 -3 -3 -4 -4 -5 -5 -5 -5 -5 -5 -6 -6 -6 -7 -7 -7 -7 -7 -7 -8
-2 -3 -4 -4 -4 -3 -3 -4 -4 -4 -4 -4 -4 -4 -4 -4 -4 -4 -4 -4 -3 -4 -4 -3 -3 -4 -4 -4 -4 -4 -5 -5 -6 -6 -6 -6 -6 -7 -7 -7 -7 -8 -8
-3 -3 -4 -4 -4 -3 -3 -3 -4 -4 -3 -3 -3 -4 -4 -4 -4 -4 -4 -4 -4 -4 -4 -3 -3 -4 -4 -4 -4 -4 -5 -5 -5 -5 -5 -5 -6 -6 -7 -7 -7 -8 -8
-3 -4 -4 -4 -3 -3 -2 -3 -3 -3 -3 -3 -3 -4 -4 -4 -4 -4 -3 -3 -3 -3 -3 -3 -3 -3 -3 -4 -4 -4 -5 -5 -6 -6 -5 -5 -6 -6 -7 -7 -7 -7 -7
-3 -4 -4 -4 -3 -2 -2 -2 -2 -2 -2 -3 -4 -4 -4 -4 -3 -3 -3 -3 -3 -3 -3 -3 -3 -3 -3 -3 -4 -4 -5 -5 -5 -6 -6 -6 -6 -6 -7 -7 -7 -7 -7
-3 -3 -4 -3 -3 -2 -1 -1 -1 -2 -3 -3 -4 -4 -4 -4 -3 -3 -3 -3 -3 -3 -3 -3 -3 -3 -4 -4 -4 -5 -5 -5 -5 -5 -6 -6 -7 -7 -7 -7 -7 -7 -7
-2 -3 -3 -3 -3 -2 -1 -1 -2 -3 -3 -3 -4 -4 -4 -4 -4 -4 -3 -3 -3 -3 -3 -3 -3 -4 -4 -5 -5 -6 -6 -6 -5 -4 -5 -6 -6 -6 -7 -7 -7 -6 -6
-2 -2 -3 -3 -3 -2 -2 -2 -2 -3 -3 -3 -4 -4 -4 -4 -4 -4 -4 -4 -3 -4 -4 -4 -5 -5 -5 -5 -6 -6 -6 -6 -5 -4 -5 -5 -5 -5 -6 -6 -6 -6 -6
-1 -2 -2 -3 -3 -3 -3 -3 -3 -3 -3 -4 -4 -4 -4 -4 -4 -4 -4 -4 -4 -5 -5 -5 -5 -6 -6 -6 -6 -6 -5 -5 -5 -5 -5 -5 -5 -5 -6 -6 -6 -6 -6
-1 -1 -2 -2 -2 -2 -2 -3 -3 -3 -3 -4 -4 -4 -3 -3 -3 -3 -4 -4 -5 -5 -5 -6 -6 -6 -6 -6 -6 -5 -4 -4 -4 -4 -5 -5 -6 -6 -7 -7 -7 -7 -7
-1 -1 -1 -1 -1 -1 -1 -2 -2 -2 -2 -3 -3 -3 -3 -3 -3 -3 -3 -4 -4 -5 -5 -5 -6 -6 -6 -6 -5 -4 -3 -3 -3 -3 -4 -5 -6 -7 -7 -7 -7 -7 -7
-0 -0 -0 -1 -1 -0 -0 -1 -1 -1 -2 -2 -3 -3 -3 -3 -3 -3 -3 -3 -4 -5 -5 -5 -5 -5 -5 -5 -4 -3 -2 -2 -2 -3 -3 -4 -6 -7 -8 -8 -8 -8 -8
0 0 0 -0 -1 -0 -0 -0 -1 -1 -2 -3 -3 -3 -3 -3 -3 -2 -2 -3 -4 -5 -5 -5 -5 -5 -4 -4 -3 -2 -1 -1 -2 -2 -3 -4 -5 -7 -8 -7 -7 -7 -7
1 1 1 0 -0 -0 -1 -1 -2 -2 -2 -3 -3 -3 -3 -3 -2 -2 -2 -3 -4 -5 -5 -5 -5 -5 -4 -3 -3 -2 -2 -2 -2 -3 -3 -4 -5 -7 -7 -7 -7 -7 -7
2 2 1 1 0 -0 -1 -1 -2 -2 -2 -3 -3 -3 -3 -3 -2 -2 -2 -3 -4 -5 -5 -5 -5 -5 -4 -4 -3 -3 -3 -3 -3 -3 -4 -4 -5 -6 -7 -6 -6 -7 -6
2 2 2 1 1 -0 -1 -1 -2 -2 -3 -3 -3 -3 -2 -2 -2 -2 -2 -3 -3 -4 -5 -5 -5 -5 -4 -4 -4 -3 -3 -3 -3 -3 -4 -5 -6 -6 -6 -6 -6 -6 -6
2 2 2 2 1 0 -1 -2 -2 -3 -3 -3 -3 -3 -2 -2 -1 -2 -2 -2 -3 -4 -5 -5 -5 -5 -4 -3 -3 -3 -3 -3 -3 -3 -4 -5 -6 -6 -6 -6 -6 -6 -6
1 2 2 2 2 1 -1 -2 -3 -3 -3 -3 -3 -3 -3 -2 -2 -1 -2 -2 -2 -3 -5 -5 -5 -5 -4 -3 -3 -2 -2 -2 -2 -3 -4 -5 -5 -6 -6 -6 -6 -6 -6
1 2 2 2 1 0 -1 -2 -3 -3 -3 -3 -3 -3 -3 -3 -2 -2 -2 -2 -2 -3 -4 -5 -5 -4 -4 -3 -3 -2 -2 -2 -2 -2 -3 -4 -5 -5 -6 -6 -6 -6 -5
1 1 1 2 1 -1 -2 -3 -3 -3 -3 -4 -4 -4 -4 -3 -3 -2 -2 -2 -2 -3 -5 -5 -5 -4 -4 -4 -3 -2 -2 -3 -3 -3 -3 -4 -4 -4 -5 -5 -5 -5 -5
0 0 1 1 1 -1 -2 -3 -3 -3 -4 -4 -3 -3 -3 -3 -3 -3 -2 -2 -2 -4 -5 -5 -5 -5 -4 -4 -4 -3 -3 -3 -3 -3 -3 -3 -3 -3 -3 -4 -4 -5 -5
-1 -0 0 1 0 -1 -2 -3 -3 -3 -3 -3 -3 -3 -3 -4 -3 -3 -2 -2 -3 -4 -5 -6 -6 -6 -5 -5 -4 -4 -4 -4 -4 -3 -2 -2 -2 -2 -2 -2 -3 -4 -4
-1 -1 -0 0 -0 -1 -2 -3 -3 -3 -3 -3 -3 -3 -3 -4 -4 -3 -3 -3 -3 -4 -5 -6 -6 -6 -6 -6 -5 -4 -4 -4 -3 -2 -2 -2 -2 -2 -2 -1 -2 -3 -4
-2 -1 -1 -1 -1 -2 -2 -3 -3 -3 -3 -3 -3 -3 -4 -4 -4 -4 -3 -3 -4 -5 -5 -6 -6 -6 -6 -6 -6 -4 -4 -3 -3 -2 -2 -2 -2 -2 -2 -2 -2 -2 -3
-2 -2 -1 -1 -2 -2 -3 -3 -3 -3 -2 -3 -3 -3 -4 -4 -4 -4 -4 -4 -4 -5 -5 -6 -6 -6 -6 -6 -6 -5 -4 -4 -3 -3 -3 -3 -2 -3 -3 -2 -2 -2 -2